Theta_e
335 336 339 339 341 341 346 350 353 354 357 362 363 364 364 368 363 355 354 356 353 352 350 352 356 364 365 361 363 362 361 359 358
334 338 338 339 340 343 346 350 354 352 356 362 362 361 364 363 362 359 355 355 358 353 358 353 359 363 361 361 362 363 364 361 359
333 338 338 338 341 342 347 350 354 349 357 359 361 361 363 359 360 360 361 359 358 363 362 359 360 360 360 361 362 364 367 361 364
335 336 339 338 341 345 347 351 353 352 356 357 358 359 361 362 364 360 359 357 358 358 361 363 360 362 359 362 361 362 367 365 355
336 339 339 340 341 344 347 351 354 354 355 354 357 359 362 360 362 360 359 358 358 358 361 362 362 362 359 361 363 362 359 360 355
331 335 341 342 342 344 347 350 353 352 353 354 353 357 357 359 360 359 357 357 361 359 361 360 360 364 364 363 363 360 360 359 358
333 337 341 344 345 346 348 350 355 358 356 357 358 357 357 362 361 360 358 361 364 360 364 362 365 365 366 363 361 361 360 361 361
333 335 338 340 344 348 351 351 354 356 358 362 362 363 365 365 368 368 367 366 367 366 365 364 365 364 364 362 360 357 363 359 359
333 335 336 339 341 345 350 352 355 356 358 360 362 361 360 367 370 368 366 364 366 362 362 362 366 364 364 361 356 345 342 351 355
332 334 337 340 341 342 348 354 356 356 359 362 365 365 364 365 367 366 367 364 366 364 364 365 366 365 364 363 364 342 342 345 355
331 334 336 339 340 342 345 348 354 358 359 362 364 363 364 366 367 366 366 365 366 367 366 366 366 366 367 365 362 332 337 344 360
331 333 335 337 340 341 344 345 349 356 358 361 361 362 364 367 369 367 366 365 366 366 367 367 367 367 368 365 361 326 327 338 357
330 332 334 334 336 340 342 344 345 347 352 358 362 364 366 369 370 372 368 370 370 371 367 366 360 361 366 355 350 321 321 330 351
330 331 332 333 335 336 341 343 345 346 348 351 359 362 367 367 371 372 373 373 371 370 367 365 367 367 367 365 355 331 318 318 339
327 328 329 330 331 333 336 341 344 345 347 352 355 359 362 363 368 366 364 374 372 370 369 368 368 367 360 358 352 329 317 316 319
327 328 329 330 330 331 334 337 342 343 349 351 352 353 354 362 366 365 370 368 370 364 368 358 359 358 355 351 347 338 315 315 320
326 327 328 329 330 330 331 337 338 343 347 350 350 350 353 355 362 360 363 361 363 360 356 357 356 353 351 348 344 339 330 328 328
325 326 328 329 329 330 331 336 338 337 344 346 346 347 348 356 355 347 347 339 329 346 349 339 353 352 350 345 341 337 324 324 334
326 326 328 328 329 330 331 332 334 341 344 345 344 344 343 347 349 346 340 343 342 312 311 310 306 310 319 340 316 307 303 301 303
324 327 329 331 329 331 334 336 333 337 343 341 342 343 343 342 341 345 345 343 341 338 325 309 305 305 305 310 307 301 300 300 301
Wind_Speed
4 3 5 10 13 14 12 12 15 16 16 15 15 13 13 11 12 9 7 9 7 8 9 8 9 10 10 9 7 7 6 6 6
8 6 5 9 10 13 13 14 14 10 15 14 14 16 13 13 11 11 10 10 10 6 7 9 6 10 8 9 8 7 6 4 7
9 8 6 8 10 9 13 13 13 13 12 14 15 14 14 12 11 12 12 9 9 9 4 10 7 9 9 8 8 7 5 7 9
9 8 8 8 9 11 12 12 12 15 13 14 14 14 12 11 11 14 12 10 11 10 9 8 7 6 6 8 9 8 6 5 4
8 7 6 4 7 10 10 11 13 5 12 12 12 13 12 13 13 12 13 11 10 13 10 9 9 9 9 9 9 6 7 7 9
4 3 6 6 5 7 9 12 11 11 8 11 10 11 14 14 14 14 13 13 10 12 11 11 12 10 7 10 7 8 8 8 9
7 5 3 6 5 6 7 9 11 13 13 9 11 11 12 11 13 13 13 12 11 12 11 11 10 7 9 11 10 9 9 9 9
5 5 5 5 5 6 6 8 10 12 11 11 9 9 8 9 10 10 11 8 9 9 9 10 12 11 12 10 9 10 11 10 10
5 6 6 5 5 5 4 6 9 10 12 13 12 12 12 9 9 10 10 9 9 9 9 10 12 11 11 10 10 5 7 7 9
6 6 6 7 7 5 5 5 6 9 10 11 12 12 12 11 11 11 10 11 11 12 13 13 12 12 12 12 11 3 7 8 9
7 7 8 6 7 7 8 8 9 8 9 10 10 12 12 12 12 12 12 12 12 11 11 11 10 11 11 10 8 8 8 6 9
5 7 8 7 8 6 4 3 4 7 7 9 11 12 12 13 13 13 13 13 12 12 10 10 11 10 11 10 7 6 2 3 8
6 7 8 9 9 8 9 7 8 6 6 8 9 11 12 12 13 13 14 13 12 11 11 11 11 12 11 7 10 8 3 5 6
6 7 9 10 10 9 9 8 7 7 7 9 6 10 12 11 12 13 13 12 11 11 12 11 11 11 8 9 11 9 8 4 4
5 7 9 9 9 10 11 10 8 8 7 8 9 8 8 9 11 12 12 13 12 12 12 12 11 10 10 8 8 10 7 5 1
8 8 9 10 10 11 11 10 9 9 8 8 9 10 11 9 10 11 12 13 12 12 12 11 11 8 9 9 7 7 9 8 7
10 10 10 10 11 13 13 11 11 10 9 8 9 11 10 11 10 10 11 12 13 13 13 11 9 11 10 9 9 9 8 8 7
13 12 12 12 12 12 14 13 13 13 11 9 9 10 10 7 4 3 4 4 6 3 6 2 7 9 9 9 9 9 7 4 7
14 14 13 13 14 14 14 16 15 13 12 11 10 9 9 7 5 4 1 3 2 11 11 7 12 8 4 5 5 13 15 12 11
16 16 15 14 15 15 14 14 15 14 14 13 12 11 9 8 5 8 6 5 5 4 3 9 8 8 8 5 11 13 14 10 5
Wind_Direction
90 322 173 213 202 210 159 168 183 187 182 186 192 195 204 187 201 197 209 219 213 212 193 196 219 195 216 212 216 216 235 243 257
52 126 182 208 232 193 176 188 179 188 184 179 196 201 195 188 196 207 203 220 216 242 202 178 193 187 201 228 229 234 235 256 260
44 99 165 192 214 197 185 184 174 161 190 188 201 210 198 187 190 201 220 203 199 245 228 165 202 193 218 224 225 228 210 227 231
51 61 141 195 205 188 198 199 163 201 183 196 202 201 197 202 187 200 212 213 192 222 240 203 226 216 218 242 241 215 221 246 286
49 48 88 150 204 186 186 197 167 156 191 204 209 199 201 198 196 200 189 219 202 192 224 219 219 224 217 224 232 223 215 215 257
51 2 111 137 179 194 203 176 150 180 186 194 212 201 202 202 197 198 193 199 219 200 198 220 219 220 228 247 241 216 230 234 242
13 42 110 90 159 184 214 206 189 178 185 206 211 209 203 204 205 204 208 205 199 206 194 207 227 223 226 242 219 223 233 243 240
58 28 32 23 336 159 192 212 191 204 196 193 195 203 215 210 200 211 205 215 196 211 219 212 205 213 226 225 232 232 220 240 260
56 48 25 28 6 349 218 219 212 205 204 195 194 200 204 210 204 209 215 198 199 201 201 213 218 215 219 216 239 235 197 229 265
46 40 45 26 11 7 342 292 227 221 219 212 204 209 209 204 202 206 208 202 200 201 203 213 208 214 218 222 230 165 181 185 236
48 29 27 30 25 8 354 335 326 208 228 218 221 216 208 198 198 204 203 201 207 210 211 215 214 215 221 225 222 137 156 175 237
37 18 11 12 21 4 325 335 295 314 266 229 223 223 219 209 197 198 200 203 201 203 207 212 215 217 218 219 153 87 79 220 241
22 16 360 2 357 349 11 0 354 321 277 248 241 231 223 218 213 201 199 201 200 200 200 208 211 210 213 202 134 142 159 250 258
5 353 345 346 349 348 358 1 353 329 318 297 287 239 231 219 217 217 205 199 197 197 203 209 209 208 196 164 163 160 166 140 235
322 326 329 337 336 337 336 340 346 340 332 329 320 317 295 249 220 222 211 207 198 200 203 208 200 202 185 188 162 143 176 167 152
293 292 297 308 313 313 314 328 328 322 332 321 314 296 285 269 245 231 232 212 206 202 203 216 212 191 206 197 186 172 145 187 189
280 284 286 283 287 293 296 301 304 304 299 309 305 294 276 267 249 242 232 222 214 214 208 206 199 208 216 198 189 179 182 198 204
291 288 285 282 281 279 282 288 288 289 287 286 292 293 296 312 318 12 305 24 350 217 358 359 226 218 210 206 196 194 141 161 194
288 283 283 283 280 275 276 281 283 282 283 280 272 276 266 235 227 224 242 287 182 73 72 29 37 47 69 58 62 119 98 84 79
289 286 281 276 274 270 269 270 272 276 274 273 262 258 273 283 227 270 210 193 196 218 79 59 70 34 43 83 130 108 106 115 133